Location: North Evanston
(42.0634°N, 87.6976°W)
Time: 02:01:44
(UTC+00:00)

Vanguard 1 Rocket - Visible Passes

Search period start: 14 May 2026 00:00
Search period end: 24 May 2026 00:00
Orbit: 655 x 4212 km, 34.3° (Epoch: 13 May)

Date Brightness Start Highest point End Pass type
(mag) Time Alt. Az. Time Alt. Az. Time Alt. Az.
14 May 10.8 02:48:51 10° W 03:06:59 45° SSW 03:23:22 23° SSE visible
14 May 11.3 05:21:58 10° W 05:36:08 19° SW 05:40:29 18° SW visible
15 May 10.6 01:35:17 10° W 01:51:36 54° SSW 02:14:33 13° SE visible
15 May 11.1 04:04:26 10° W 04:21:31 29° SW 04:31:40 23° S visible
16 May 10.9 02:49:26 10° W 03:06:29 39° SSW 03:22:54 20° SSE visible
16 May 11.5 05:25:23 10° WSW 05:35:22 14° SW 05:40:02 13° SW visible
17 May 10.7 01:35:47 10° W 01:51:19 48° SSW 02:14:11 11° SE visible
17 May 11.3 04:05:47 10° W 04:20:52 24° SW 04:31:19 18° SSW visible
18 May 11.0 02:50:14 10° W 03:06:01 33° SW 03:22:39 16° SSE visible
19 May 10.8 01:36:22 10° W 01:51:04 42° SSW 02:13:19 10° SSE visible
19 May 11.5 04:07:57 10° W 04:20:19 18° SW 04:31:11 13° SSW visible
20 May 11.2 02:51:22 10° W 03:05:37 27° SW 03:22:37 12° S visible
21 May 10.9 01:37:09 10° W 01:50:52 36° SSW 02:11:27 10° SSE visible
21 May 11.6 04:12:02 10° WSW 04:19:54 13° SW 04:28:36 10° SSW visible
22 May 11.3 02:53:02 10° W 03:05:19 21° SW 03:21:04 10° S visible
23 May 11.0 01:38:10 10° W 01:50:44 30° SSW 02:09:09 10° SSE visible
